Date,TemperatureHighF,TemperatureAvgF,TemperatureLowF,DewpointHighF,DewpointAvgF,DewpointLowF,HumidityHigh,HumidityAvg,HumidityLow,PressureMaxIn,PressureMinIn,WindSpeedMaxMPH,WindSpeedAvgMPH,GustSpeedMaxMPH,PrecipitationSumIn
2013-2-1,46.5,36.4,23.1,23.0,18.5,11.0,83,52,27,30.16,30.03,24,5,33,0.00
2013-2-2,56.0,39.9,24.8,20.0,15.1,6.0,69,41,13,30.27,30.16,11,2,18,0.00
2013-2-3,53.7,40.2,27.6,20.0,12.7,-2.0,67,37,10,30.20,29.91,12,2,20,0.00
2013-2-4,52.7,41.4,25.3,16.0,9.9,2.0,53,29,16,29.98,29.87,28,6,34,0.00
2013-2-5,59.2,46.1,33.9,22.0,16.0,14.0,50,31,19,30.04,29.86,6,1,13,0.00
2013-2-6,52.8,42.5,34.5,33.0,23.7,19.0,91,51,28,30.07,29.84,10,2,15,0.01
2013-2-7,47.3,35.9,25.8,32.0,21.7,12.0,92,61,27,30.14,30.00,8,1,12,0.00
2013-2-8,51.4,34.9,23.6,18.0,13.4,7.0,67,44,17,30.00,29.73,8,1,11,0.00
2013-2-9,35.7,29.7,23.7,29.0,20.6,12.0,90,70,47,29.74,29.59,12,3,18,0.01
2013-2-10,34.7,27.3,20.6,21.0,14.8,7.0,88,62,33,30.02,29.63,9,2,21,0.01
2013-2-11,27.7,22.0,16.2,16.0,14.2,12.0,87,72,56,30.03,29.94,7,1,13,0.00
2013-2-12,41.6,28.5,15.8,14.0,4.8,-8.0,86,44,12,30.01,29.97,3,0,9,0.00
2013-2-13,45.0,34.8,20.7,16.0,11.7,7.0,59,40,26,30.00,29.90,18,5,36,0.00
2013-2-14,40.2,27.7,22.5,23.0,18.0,11.0,88,69,30,30.22,29.99,18,3,23,0.00
2013-2-15,40.6,26.7,15.3,19.0,14.5,10.0,87,63,29,30.23,30.16,13,2,16,0.01
2013-2-16,53.8,44.9,28.1,17.0,12.7,8.0,58,28,20,30.16,29.97,20,6,26,0.00
2013-2-17,61.8,44.9,29.3,17.0,4.9,-17.0,48,24,4,29.98,29.62,13,4,32,0.00
2013-2-18,39.3,31.0,23.7,21.0,10.4,1.0,81,47,20,30.05,29.80,19,3,31,0.00
2013-2-19,40.0,28.9,18.7,15.0,10.3,6.0,67,48,29,30.05,29.80,8,1,10,0.00
2013-2-20,35.1,25.3,19.0,27.0,17.8,14.0,93,75,48,29.81,29.67,8,2,12,0.00
2013-2-21,25.9,19.8,14.0,20.0,16.0,11.0,91,85,73,29.88,29.72,6,1,13,0.14
2013-2-22,33.2,25.0,15.7,18.0,14.1,5.0,90,66,35,29.93,29.82,11,2,18,0.05
2013-2-23,46.0,31.4,18.5,27.0,15.7,4.0,92,55,31,29.84,29.64,12,2,15,0.00
2013-2-24,28.4,25.7,22.8,26.0,24.1,21.0,94,93,91,30.07,29.74,26,5,27,0.00
2013-2-25,37.6,24.7,12.9,22.0,16.7,10.0,91,74,35,30.06,29.83,8,1,9,0.16
2013-2-26,32.5,25.9,18.6,25.0,18.3,12.0,88,73,56,30.09,29.80,22,4,25,0.03
2013-2-27,35.5,27.1,18.3,14.0,10.1,3.0,76,50,29,30.17,30.09,11,2,14,0.00
2013-2-28,41.6,31.4,14.9,18.0,11.1,2.0,70,44,26,30.19,30.11,15,4,24,0.00